Vancouver Int'l Airport, British Columbia

Past 24 Hour Conditions

This table is a summary of hourly weather conditions for the past 24 hours. This summary includes the following parameters: temperature, humidity, dew point, wind speed and direction, air pressure, visibility and/or wind chill and humidex.
Date / Time
(PDT)
Conditions Temp (°C) Humidity (%) Dew Point (°C) Wind (km/h) Pressure (kPa) Visibility (km)
20 September 2014
00:00 Fog 13   98 12 NNW 3 102.1 32
19 September 2014
23:00 Mainly Clear 15 97 14 E 6 102.1 32
22:00 Fog 15 96 15 N 3 102.1 32
21:00 Mainly Clear 16 91 15 ENE 8 102.0 32
20:00 Partly Cloudy 17 89 15 E 5 102.0 32
19:00 Mostly Cloudy 19   82 16 E 10 102.0 32
18:00 Mostly Cloudy 19   81 16 ESE 13 102.0 32
17:00 Mostly Cloudy 19   81 16 ESE 12 102.0 32
16:00 Mostly Cloudy 19   80 16 ESE 10 101.9 24
15:00 Mostly Cloudy 19   83 16 ESE 10 102.0 24
14:00 Mostly Cloudy 18 90 17 E 11 102.0 24
13:00 Mostly Cloudy 16 96 16 E 11 102.0 19
12:00 Light Rain 16 97 15 E 13 102.0 10
11:00 Light Rain 16 97 15 E 12 101.9 10
10:00 Light Rain 15 96 15 SE 13 101.8 6
9:00 Light Rain 15 96 15 E 17 101.8 13
8:00 Mostly Cloudy 15 94 14 E 21 101.7 24
7:00 Mostly Cloudy 15 94 14 E 17 101.6 19
6:00 Light Rain 15 95 14 E 17 101.5 24
5:00 Mostly Cloudy 15 96 14 E 12 101.5 24
4:00 Mostly Cloudy 15 96 14 E 14 101.5 24
3:00 Light Rain 15 95 14 E 14 101.5 19
2:00 Mostly Cloudy 15 94 14 E 15 101.4 24
1:00 Mostly Cloudy 15 95 14 E 17 101.4 24
00:00 Mostly Cloudy 15 94 15 ENE 13 101.4 24
N/A
Not available
 ↑ 
Highest temperature
 ↓ 
Lowest temperature

If you require additional historical weather information, please visit Climate Data Online.